AO-07 1 07530U 74089B 26263.01476802 -.00000045 00000-0 98815-5 0 9996 2 07530 101.9920 277.2524 0011997 311.4967 75.2520 12.53699604372408 UO-11 1 14781U 84021B 26263.18935485 .00001052 00000-0 11210-3 0 9994 2 14781 97.8181 227.7740 0006408 221.8303 138.2426 14.91001415271285 LO-19 1 20442U 90005G 26263.06653483 .00000040 00000-0 30961-4 0 9997 2 20442 98.8820 287.4719 0010507 289.6266 70.3784 14.34144701915990 AO-27 1 22825U 93061C 26263.16552080 .00000029 00000-0 28062-4 0 9997 2 22825 98.6789 330.5008 0008483 174.2728 185.8553 14.30962074720584 FO-29 1 24278U 96046B 26262.79767312 .00000004 00000-0 40673-4 0 9996 2 24278 98.5165 98.6980 0349340 210.7684 147.2558 13.53278316485963 GO-32 1 25397U 98043D 26262.96213589 .00000023 00000-0 29983-4 0 9991 2 25397 99.0159 258.1495 0000764 0.4741 359.6438 14.24443408464824 ISS 1 25544U 98067A 26263.14255447 .00007470 00000-0 14267-3 0 9992 2 25544 51.6307 190.1401 0004820 160.6694 199.4478 15.49188396586472 NO-44 1 26931U 01043C 26263.21788789 .00000036 00000-0 44436-4 0 9992 2 26931 67.0532 358.4725 0005840 273.0140 87.0293 14.31985037304056 SO-50 1 27607U 02058C 26262.21781256 .00000644 00000-0 93607-4 0 9990 2 27607 64.5523 198.0161 0071734 245.1928 114.1705 14.83218520278402 CO-55 1 27844U 03031E 26262.30825485 .00000177 00000-0 95427-4 0 9991 2 27844 98.6773 269.7000 0008370 273.0739 86.9482 14.24383016205073 RS-22 1 27939U 03042A 26263.21982360 .00000295 00000-0 53533-4 0 9998 2 27939 98.3485 90.2931 0010780 333.7987 137.9700 14.73604688229545 CO-65 1 32785U 08021C 26263.21871522 .00003200 00000-0 19982-3 0 9990 2 32785 97.8388 246.7226 0010384 69.6600 290.5743 15.10202048999530 CO-66 1 32791U 08021J 26262.96547176 .00014057 00000-0 40691-3 0 9996 2 32791 97.7577 265.6353 0002394 30.6292 329.5090 15.35713894 1810 RS-30 1 32953U 08025A 26263.14309272 .00000034 00000-0 17043-3 0 9999 2 32953 82.5014 296.3825 0020713 104.0952 256.2431 12.43183099831491 SRMSAT 1 37841U 11058D 26263.01817206 .00000357 00000-0 49981-4 0 9992 2 37841 19.9709 205.4664 0011868 166.7244 270.3270 14.11593351771235 ZACUBE-1 1 39417U 13066B 26263.17297214 .00003336 00000-0 25646-3 0 9993 2 39417 97.8156 226.0092 0038977 295.0993 64.6188 15.01846354694980 Delfi-N3xt 1 39428U 13066N 26263.18170602 .00003791 00000-0 32553-3 0 9997 2 39428 97.8284 183.4494 0071278 250.0579 109.2954 14.96128514688825 GOMX-1 1 39430U 13066Q 26263.16835800 .00001266 00000-0 19453-3 0 9995 2 39430 97.6439 97.6452 0128912 131.7046 229.5275 14.69709394683862 LO-74 1 39440U 13066AA 26263.09835216 .00002265 00000-0 20952-3 0 9995 2 39440 97.8991 212.5547 0058631 72.8867 287.8762 14.94295020691161 AO-73 1 39444U 13066AE 26261.88615229 .00005265 00000-0 31844-3 0 9999 2 39444 97.8389 235.4218 0033773 243.5172 116.2592 15.10630929693800 DTUSAT-2 1 40030U 14033W 26262.98142672 .00004216 00000-0 22294-3 0 9990 2 40030 98.0927 266.8360 0006024 272.2482 87.8059 15.16068449667048 LILACSAT-2 1 40908U 15049K 26263.18543957 .00013422 00000-0 20581-3 0 9992 2 40908 97.4557 303.7944 0004614 259.0623 101.0112 15.54434736610490 Lapan A3 1 41603U 16040E 26263.20689046 .00002433 00000-0 77054-4 0 9998 2 41603 97.1574 256.3061 0011338 42.7812 317.4312 15.33623958569378 CAS-2T 1 41847U 16066G 26262.98022853 .00000835 00000-0 12613-3 0 9990 2 41847 98.3748 337.6227 0340814 201.6995 156.9462 14.44849840518482 TechnoSat 1 42829U 17042E 26263.18030308 .00002833 00000-0 20081-3 0 9991 2 42829 97.4407 57.3277 0018464 127.3163 232.9750 15.05426030500992 AO-91 1 43017U 17073E 26262.89417123 .00006111 00000-0 26021-3 0 9999 2 43017 97.4551 128.1747 0147209 1.9522 358.2253 15.13974742479719 S-Net D 1 43186U 18014G 26262.98087634 .00002878 00000-0 14724-3 0 9995 2 43186 97.5248 167.1722 0009539 57.0805 303.1345 15.17414145473136 S-Net B 1 43187U 18014H 26263.19209606 .00002915 00000-0 14918-3 0 9992 2 43187 97.5253 167.3715 0010124 51.8522 308.3622 15.17383788473163 S-Net A 1 43188U 18014J 26263.04517653 .00002960 00000-0 15127-3 0 9994 2 43188 97.5264 167.4530 0010002 52.9335 307.2811 15.17423286473145 S-Net C 1 43189U 18014K 26263.06466219 .00003131 00000-0 15999-3 0 9996 2 43189 97.5281 167.5615 0011177 45.6933 314.5215 15.17373649471691 Ten-Koh 1 43677U 18084G 26262.78631928 .00000737 00000-0 59286-4 0 9991 2 43677 98.0719 99.1525 0009819 153.9496 206.2224 15.03252584430378 PO-101 1 43678U 18084H 26263.18965072 .00000913 00000-0 77117-4 0 9996 2 43678 98.1174 103.5804 0011959 209.8877 150.1664 15.00738558430469 QO-100 1 43700U 18090A 26263.06859270 .00000140 00000-0 00000 0 0 9992 2 43700 0.0190 191.4174 0001224 323.4842 254.5471 1.00270970 28620 MinXSS-2 1 43758U 18099A 26263.17371860 .00034574 00000-0 54110-3 0 9993 2 43758 97.4442 342.6631 0005490 267.5189 92.5436 15.53663568428843 AO-95 1 43770U 18099N 26263.12239024 .00007863 00000-0 28592-3 0 9993 2 43770 97.4285 323.0885 0008479 22.9515 337.2102 15.28501039427712 SNUSat 2 1 43782U 18099AA 26261.13610748 .00004914 00000-0 21133-3 0 9999 2 43782 97.3962 313.1241 0009052 338.1889 21.8961 15.23071167427174 SnugLite 1 43784U 18099AC 26263.09352208 .00007326 00000-0 26327-3 0 9992 2 43784 97.3771 316.5096 0001658 348.3480 11.7721 15.28939619427816 ITASat 1 1 43786U 18099AE 26261.39700705 .00004670 00000-0 21918-3 0 9994 2 43786 97.3931 311.0652 0012942 33.8772 326.3287 15.20055674427063 EAGLET 1 1 43790U 18099AJ 26262.94200169 .00002623 00000-0 14977-3 0 9993 2 43790 97.4138 310.0893 0011528 26.3027 333.8788 15.13535269426662 ESEO 1 43792U 18099AL 26263.09719876 .00000995 00000-0 75187-4 0 9993 2 43792 97.3909 296.3985 0012286 17.7578 342.4076 15.04480750426079 JO-97 1 43803U 18099AX 26262.41966991 .00012286 00000-0 34786-3 0 9998 2 43803 97.4022 325.7200 0003854 296.9693 63.1158 15.36423222428083 Suomi 100 1 43804U 18099AY 26261.11207821 .00008636 00000-0 29651-3 0 9994 2 43804 97.4086 321.2390 0008211 316.6515 43.4079 15.30348668427626 ISAT 1 43879U 18111D 26262.10681972 .00593785 16054-3 11229-2 0 9998 2 43879 97.5724 206.3379 0009429 140.9659 219.2301 16.00711699425970 UWE-4 1 43880U 18111E 26260.79047191 .00032620 00000-0 54348-3 0 9999 2 43880 97.5815 193.8360 0006557 15.6860 344.4594 15.51924947425112 Prox-1 1 44339U 19036A 26263.11675965 .00009864 00000-0 90741-3 0 9992 2 44339 23.9934 199.1148 0005470 60.8600 299.2447 14.92594074387666 Taurus 1 1 44530U 19059C 26263.16956932 .00002390 00000-0 38148-3 0 9991 2 44530 98.6507 74.0102 0008667 20.1016 340.0529 14.72920933372627 TO-108 1 44881U 19093C 26263.15342491 .00000638 00000-0 77760-4 0 9993 2 44881 97.7446 333.0332 0014586 130.1550 230.0946 14.86638406365521 RS-44 1 44909U 19096E 26263.07123823 .00000019 00000-0 40325-4 0 9994 2 44909 82.5167 276.6553 0216349 282.6062 75.0925 12.79749405314488 SALSAT 1 46495U 20068K 26263.01745682 .00005124 00000-0 17393-3 0 9994 2 46495 97.8892 271.9626 0008600 339.9405 20.1496 15.30977638329862 CSS (TIANHE-1) 1 48274U 21035A 26262.89812237 .00015375 00000-0 18770-3 0 9991 2 48274 41.4679 106.9413 0002586 292.0471 68.0093 15.60115363307959 TeikyoSat 4 1 49396U 21102B 26263.03701737 .00001088 00000-0 71086-4 0 9997 2 49396 97.3626 288.8258 0011128 333.9968 26.0702 15.09783880267035 Z-Sat 1 49399U 21102E 26263.14949872 .00002098 00000-0 10359-3 0 9993 2 49399 97.3268 295.5952 0014610 276.3285 83.6285 15.18878257267855 KOSEN 1 1 49402U 21102H 26263.06731058 .00004748 00000-0 17627-3 0 9993 2 49402 97.3105 303.4145 0012012 225.6945 134.3310 15.27985716268502 HO-113 1 50466U 21131B 26263.22582111 .00000315 00000-0 11084-3 0 9996 2 50466 98.4968 355.0976 0004478 157.9559 202.1824 14.41428572248805 SNUGLITE 2 1 52899U 22065F 26262.66391179 .00000594 00000-0 12131-3 0 9997 2 52899 98.2341 47.4102 0008697 88.4094 271.8105 14.64491240224820 UmKA 1 (RS40S) 1 57172U 23091G 26263.13962097 .00003667 00000-0 16472-3 0 9998 2 57172 97.4952 321.4805 0013457 142.5951 217.6224 15.21718920178444 CubeBel-2 (EU11S) 1 57175U 23091K 26263.13357566 .00009192 00000-0 30725-3 0 9996 2 57175 97.4952 327.2900 0010485 133.4687 226.7427 15.31182961178829 RS-38S 1 57189U 23091Z 26263.17374882 .00012497 00000-0 32789-3 0 9999 2 57189 97.5001 334.7071 0008026 92.8886 267.3278 15.38762914179284 SONATE-2 1 59112U 24043Q 26263.18449285 .00045310 00000-0 43676-3 0 9993 2 59112 97.5624 60.0165 0005401 207.1016 152.9962 15.66376204142728 GRBBeta 1 60237U 24128C 26262.37864986 .00002199 00000-0 15861-3 0 9999 2 60237 61.9884 245.6471 0026821 155.3628 204.8753 15.07194513120462 Curium One 1 60242U 24128H 26262.47241676 .00004557 00000-0 26258-3 0 9993 2 60242 61.9773 231.5207 0026034 149.7255 210.5352 15.13669530120726 ROBUSTA-3A 1 60243U 24128J 26262.49208850 .00003780 00000-0 22538-3 0 9997 2 60243 61.9849 234.4591 0028028 146.6956 213.5911 15.12751491120684 CatSat 1 60246U 24125J 26263.02535941 .00107881 00000-0 79158-3 0 9998 2 60246 97.1943 117.6081 0014605 176.5879 183.5487 15.72669723122229 AO-123 1 61781U 24199AY 26263.06490294 .00005663 00000-0 15882-3 0 9998 2 61781 97.2840 130.8855 0012506 335.3562 24.7083 15.36906202148490 LASARsat 1 62391U 24247Q 26262.82201670 .00033498 00000-0 53930-3 0 9994 2 62391 44.9718 88.0673 0009767 232.1281 127.8728 15.52377278 97992 CroCube 1 62394U 24247T 26263.18876308 .00039307 00000-0 56570-3 0 9991 2 62394 44.9694 81.3716 0010454 243.9717 116.0101 15.55383057 98105 JINJUSat 1B 1 63210U 25052A 26262.93738047 .00012659 00000-0 36066-3 0 9992 2 63210 97.3860 159.9374 0005227 98.3620 261.8217 15.36213580 84631 NUSHSAT 1 1 63211U 25052B 26261.44098437 .00017322 00000-0 44422-3 0 9997 2 63211 97.3832 159.3718 0004946 103.6155 256.5642 15.39404458 84471 TEVEL2-4 1 63213U 25052D 26263.15429541 .00014128 00000-0 38347-3 0 9993 2 63213 97.3756 159.8446 0004481 108.9354 251.2377 15.37701885 84697 TEVEL2-5 1 63214U 25052E 26262.47114869 .00014048 00000-0 38435-3 0 9991 2 63214 97.3755 159.0762 0004349 111.7461 248.4247 15.37454822 84582 TEVEL2-6 1 63215U 25052F 26261.50926385 .00014679 00000-0 40221-3 0 9995 2 63215 97.3757 158.0953 0004217 114.8567 245.3116 15.37399635 84436 TEVEL2-1 1 63217U 25052H 26262.16012861 .00013111 00000-0 36695-3 0 9995 2 63217 97.3727 158.2529 0004202 121.9351 238.2303 15.36766162 84510 TEVEL2-3 1 63218U 25052J 26262.47623284 .00013663 00000-0 38124-3 0 9998 2 63218 97.3733 158.6068 0003970 121.0354 239.1280 15.36851694 84569 TEVEL2-2 1 63219U 25052K 26262.15970493 .00013009 00000-0 36394-3 0 9992 2 63219 97.3728 158.2570 0004214 122.5540 237.6112 15.36780306 84516 TEVEL2-9 1 63237U 25052AD 26262.98308321 .00012161 00000-0 36515-3 0 9991 2 63237 97.3790 158.2348 0006777 145.7016 214.4666 15.34562116 84555 TEVEL2-7 1 63238U 25052AE 26263.17484444 .00011463 00000-0 34832-3 0 9999 2 63238 97.3793 158.2976 0006707 146.6051 213.5616 15.34198621 84571 TEVEL2-8 1 63239U 25052AF 26261.16192927 .00011984 00000-0 36466-3 0 9992 2 63239 97.3792 156.2599 0006556 151.7923 208.3676 15.34143407 84263 SPIRONE 1 66657U 25274H 26262.03934476 .00001314 00000-0 12892-3 0 9998 2 66657 97.7482 190.0062 0013522 64.7772 295.4848 14.93856107 44230 K-HERO 1 66660U 25274L 26261.54984893 .00001759 00000-0 16893-3 0 9993 2 66660 97.7491 189.7520 0015417 69.9156 290.3722 14.94248246 44174 SNUGLITE-III DURI 1 66661U 25274M 26262.54071200 .00001364 00000-0 13218-3 0 9994 2 66661 97.7488 190.7501 0015987 67.8422 292.4493 14.94256298 44328 SAKHACUBE-CHOLBON 1 67290U 25313AU 26262.47528959 .00006672 00000-0 25897-3 0 9990 2 67290 97.3858 336.3909 0009481 32.4435 327.7385 15.26386511 40357 RS95S (QMR-KWT-2) 1 67291U 25313AV 26261.43871697 .00010335 00000-0 37511-3 0 9993 2 67291 97.3844 335.7841 0008824 33.4783 326.7013 15.28472222 40228 Ten-Koh2 1 68261U 25241B 26262.61482259 .00004060 00000-0 17425-3 0 9994 2 68261 51.6575 229.8503 0008224 98.9139 261.2771 15.24912673 29319 JACK-002 1 68417U 26067B 26262.63505559 .00004873 00000-0 22676-3 0 9991 2 68417 97.4671 220.1781 0001319 19.7204 340.4082 15.20404539 26293 DISCO 2 1 68431U 26067R 26263.12926579 .00005383 00000-0 25073-3 0 9992 2 68431 97.4705 220.6697 0003540 55.4398 304.7170 15.20325406 26361 HADES-SA (SpinnyONE) 1 68446U 26067AG 26260.81483313 .00014198 00000-0 62496-3 0 9999 2 68446 97.4497 217.9593 0008915 105.6833 254.5387 15.21924785 26001 PARUS-6U1 1 68456U 26067AS 26263.11305567 .00003990 00000-0 19734-3 0 9995 2 68456 97.4658 220.1269 0007477 92.9710 267.2380 15.18370521 26330 SAL-E 1 68458U 26067AU 26263.14873194 .00005523 00000-0 26744-3 0 9999 2 68458 97.4581 220.0618 0007728 99.5751 260.6357 15.18940262 26348 FSI-SAT 2 1 68792U 26088A 26263.15943828 .00003524 00000-0 23591-3 0 9992 2 68792 97.5198 50.1552 0015090 139.2268 221.0092 15.07472443 22598 OrigamiSat 2 1 68795U 26088D 26263.14205632 .00008285 00000-0 50333-3 0 9991 2 68795 97.5190 50.6328 0015697 111.6885 248.6018 15.10631775 22627 ARICA 2 1 68796U 26088E 26262.66985394 .00002789 00000-0 17951-3 0 9990 2 68796 97.5195 50.0220 0016871 112.8379 247.4634 15.09071214 22540 WASEDA-SAT-ZERO-II 1 68797U 26088F 26262.64357720 .00004134 00000-0 26074-3 0 9997 2 68797 97.5183 50.0502 0016405 112.7189 247.5777 15.09553759 22540 MANGARO-II-Piscus 1 68798U 26088G 26260.91223527 .00002637 00000-0 16847-3 0 9996 2 68798 97.5200 48.3924 0020044 121.2776 239.0419 15.09344135 22286 CO-128 1 69912U 26156AV 26263.17658101 .00000820 00000-0 88607-4 0 9998 2 69912 97.7472 162.2896 0000939 236.9721 123.1408 14.90954502 11156 MARINA 1 69920U 26156BD 26262.44666364 .00001315 00000-0 13464-3 0 9994 2 69920 97.7440 161.6799 0005836 270.1869 89.8681 14.92176795 11051 IO-86 1 40931U 26199.45381863 .00000000 00000-0 77536-4 0 07 2 40931 6.0006 322.6653 0012733 338.8432 273.6875 14.79294310 03 LILIUM-4 1 71922C 26067AC 26089.50133053 -.00014632 00000 0 -74472-3 0 04 2 71922 97.4497 49.1617 0004341 5.9603 355.7042 15.16896692 16